Regional Weather Roundup
Issued by NWS

Home | Current Version | Previous Version | Graphics & Text | Print | Product List | Glossary On
Versions: 1 2 3 4 5 6 7 8 9 10 11 12 13 14 15 16 17 18 19 20 21 22 23 24 25 26 27 28 29 30 31 32 33 34 35 36 37 38 39 40 41 42 43 44 45 46 47 48 49 50
594
ASUS45 KSLC 251210
RWRUT

UTAH REGIONAL WEATHER ROUNDUP
NATIONAL WEATHER SERVICE SALT LAKE CITY UT
500 AM MST SUN FEB 25 2018

UTZ001>011-023>025-251300-

NORTHERN UTAH

CITY           SKY/WX    TMP DP  RH WIND       PRES   REMARKS
BRIGHAM CITY   CLOUDY    23  20  89 CALM      30.10S
HILL AFB       MOCLDY    19  12  73 S9        30.08R WCI   9
LOGAN          CLOUDY    24  12  60 CALM      30.08R
OGDEN          MOCLDY    21  14  74 SE7       30.08R WCI  12
SALT LAKE CITY CLOUDY    28  15  58 W14       30.12R WCI  17
WENDOVER       CLEAR     24   7  48 W22       30.15R WCI   9
HEBER CITY     PTSUNNY   10   7  85 CALM      30.03R
WEST JORDAN    CLOUDY    24  15  68 W13       30.13R WCI  12

$$

UTZ011>015-024>027-251300-

CENTRAL/NORTHEAST UTAH

CITY           SKY/WX    TMP DP  RH WIND       PRES   REMARKS
PROVO AIRPORT  PTCLDY    20  15  81 N9        30.14R WCI   9
MOAB/CANYONLAN CLEAR     20  12  71 CALM      30.00R
DELTA          CLEAR     18  10  73 N8        30.16R WCI   7
PRICE          PTCLDY    12   9  87 E3        29.98R
RICHFIELD      MOCLDY    21  14  73 CALM      30.12R
VERNAL         PTCLDY     7  -1  70 CALM      29.99R

$$

UTZ013>016-019>022-027-251300-

SOUTHERN UTAH

CITY           SKY/WX    TMP DP  RH WIND       PRES   REMARKS
BRYCE CANYON   LGT SNOW  15  12  88 W12       30.00R FOG     WCI   2
CEDAR CITY     CLOUDY    21  13  71 CALM      30.10R
MILFORD        PTCLDY    14  12  92 NW9       30.14R WCI   2
ST GEORGE      MOSUNNY   35  19  52 W9        30.19R WCI  28
HANKSVILLE     CLEAR     14   9  79 CALM      30.07R
KANAB          CLEAR     18  16  93 E6        30.15R WCI   9
BLANDING         N/A     22  12  67 N7        30.06R WCI  13

$$

REGIONAL REPORTS     COLORADO/ARIZONA

CITY           SKY/WX    TMP DP  RH WIND       PRES   REMARKS
CRAIG, CO      CLOUDY    10   6  84 CALM      29.94R
GRAND JUNCTION CLOUDY    23  21  92 E8        30.00R WCI  14
RIFLE, CO      CLOUDY    18  12  77 CALM      29.99R
MONTROSE, CO   MOCLDY    20  15  81 SE6       30.00R WCI  12
CORTEZ, CO     PTCLDY    18  15  88 NE5       29.98R WCI  11
COLORADO CITY    N/A     23  14  68 CALM      30.15R
PAGE, AZ       CLEAR     30  18  60 N5        30.08R WCI  25
GRAND CANYON   PTCLDY    10   7  87 CALM      30.07R
KINGMAN, AZ    CLEAR     24   0  35 S3        30.16R
FLAGSTAFF, AZ  CLEAR      6   1  80 S3        30.06R

$$

REGIONAL REPORTS    NEVADA/IDAHO/WYOMING

CITY           SKY/WX    TMP DP  RH WIND       PRES   REMARKS
LAS VEGAS, NV  CLEAR     42  16  34 NE13      30.20R
ELY, NY        PTCLDY     8   0  69 NW6       30.16R WCI  -2
ELKO, NV       MOCLDY     7   4  87 SW3       30.17F
POCATELLO, ID  CLOUDY    20  16  84 SW20      30.04S WCI   4
BURLEY, ID     CLEAR     20  11  68 W20G36    30.07R WCI   4
EVANSTON, WY   MOCLDY    11   8  88 W16       29.93R WCI  -6
ROCK SPRINGS,  MOCLDY    14   8  77 W23       29.88R WCI  -5

$$




USA.gov is the U.S. government's official web portal to all federal, state and local government web resources and services.